Wildwood, NJ

3:58 AM EDT on April 27, 2017 (GMT -0400)
Cape May County

Weather History for KWWD - April, 2012

Change the Weather History Date:

Wednesday, April 25, 2012

  Actual Average Record
Temperature  
Mean Temperature 45 °F -  
Max Temperature 53 °F 61 °F 69 °F (2006)
Min Temperature 37 °F 45 °F 35 °F (2014)
Degree Days  
Heating Degree Days 20    
Moisture  
Dew Point 36 °F    
Average Humidity 67    
Maximum Humidity 75    
Minimum Humidity 54    
Precipitation  
Precipitation 0.00 in - - ()
Sea Level Pressure  
Sea Level Pressure 29.84 in    
Wind  
Wind Speed 5 mph (SW)    
Max Wind Speed 17 mph    
Max Gust Speed 24 mph    
Visibility 10 miles    
Events      
Averages and records for this station are not official NWS values.
T = Trace of Precipitation, MM = Missing Value Source: NWS Daily Summary

Daily Weather History Graph

Daily Weather History Graph

Search for Another Location

Airport or City:

Trip Planner

Search our weather history database for the weather conditions in past years. The results will help you decide how hot, cold, wet, or windy it might be!

Date:

Astronomy

Apr. 25, 2012 Rise Set
Actual Time 6:08 AM EDT 7:47 PM EDT
Civil Twilight 5:40 AM EDT 8:15 PM EDT
Nautical Twilight 5:06 AM EDT 8:49 PM EDT
Astronomical Twilight 4:29 AM EDT 9:26 PM EDT
Moon 8:52 AM EDT (4/25) 11:50 PM EDT (4/25)
Length of Visible Light 14h 35m
Length of Day
13h 38m
Waxing Crescent, 16% of the Moon is Illuminated
Apr 25
Waxing Crescent
Apr 29
First Quarter
May 5
Full
May 12
Last Quarter
May 20
New

Hourly Weather History & Observations

Time (EDT) Temp. Dew Point Humidity Pressure Visibility Wind Dir Wind Speed Gust Speed Precip Events Conditions
12:15 AM - - N/A% 29.75 in 10.0 mi West 5.8 mph - N/A   Clear
12:35 AM - - N/A% 29.75 in 10.0 mi West 5.8 mph - N/A   Clear
12:55 AM - - N/A% 29.76 in 10.0 mi NW 4.6 mph - N/A   Clear
1:15 AM - - N/A% 29.77 in 10.0 mi NNW 8.1 mph - N/A   Clear
1:35 AM - - N/A% 29.77 in 10.0 mi North 5.8 mph - N/A   Clear
1:55 AM - - N/A% 29.77 in 10.0 mi North 3.5 mph - N/A   Clear
2:15 AM - - N/A% 29.78 in 10.0 mi NNW 4.6 mph - N/A   Clear
2:35 AM - - N/A% 29.78 in 10.0 mi Calm Calm - N/A   Clear
2:55 AM - - N/A% 29.78 in 10.0 mi Calm Calm - N/A   Clear
3:15 AM 42.8 °F 33.8 °F 70% 29.79 in 10.0 mi Calm Calm - N/A   Clear
3:55 AM - - N/A% 29.78 in 10.0 mi Calm Calm - N/A   Clear
4:15 AM - - N/A% 29.79 in 10.0 mi Calm Calm - N/A   Clear
4:35 AM - - N/A% 29.79 in 10.0 mi Calm Calm - N/A   Clear
4:55 AM - - N/A% 29.79 in 10.0 mi Calm Calm - N/A   Clear
5:15 AM - - N/A% 29.80 in 10.0 mi Calm Calm - N/A   Clear
5:35 AM 37.4 °F 30.2 °F 75% 29.80 in - Calm Calm - N/A   Clear
5:55 AM - - N/A% 29.80 in - Calm Calm - N/A   Unknown
6:15 AM - - N/A% 29.81 in 10.0 mi Calm Calm - N/A   Mostly Cloudy
6:35 AM - - N/A% 29.82 in 10.0 mi Calm Calm - N/A   Scattered Clouds
6:55 AM - - N/A% 29.83 in 10.0 mi Calm Calm - N/A   Clear
7:15 AM - - N/A% 29.83 in 10.0 mi Calm Calm - N/A   Clear
7:35 AM - - N/A% 29.84 in 10.0 mi Calm Calm - N/A   Clear
8:15 AM - - N/A% 29.85 in 10.0 mi SSE 5.8 mph - N/A   Clear
8:35 AM - - N/A% 29.86 in 10.0 mi SSE 5.8 mph - N/A   Clear
8:55 AM - - N/A% 29.86 in 10.0 mi SE 6.9 mph - N/A   Clear
9:15 AM - - N/A% 29.86 in 10.0 mi SE 6.9 mph - N/A   Partly Cloudy
9:35 AM - - N/A% 29.87 in 10.0 mi SSE 6.9 mph - N/A   Partly Cloudy
9:55 AM - - N/A% 29.87 in 10.0 mi SE 10.4 mph - N/A   Clear
10:15 AM - - N/A% 29.87 in 10.0 mi South 10.4 mph - N/A   Clear
10:35 AM - - N/A% 29.87 in 10.0 mi SSE 12.7 mph 17.3 mph N/A   Clear
10:55 AM - - N/A% 29.87 in 10.0 mi SSE 13.8 mph 19.6 mph N/A   Clear
11:15 AM - - N/A% 29.87 in 10.0 mi SSE 17.3 mph - N/A   Clear
11:35 AM - - N/A% 29.87 in 10.0 mi SSE 15.0 mph 20.7 mph N/A   Clear
11:55 AM - - N/A% 29.86 in 10.0 mi SSE 17.3 mph - N/A   Clear
12:15 PM - - N/A% 29.86 in 10.0 mi South 12.7 mph 19.6 mph N/A   Clear
12:35 PM - - N/A% 29.84 in 10.0 mi South 16.1 mph - N/A   Clear
12:55 PM - - N/A% 29.84 in 10.0 mi South 12.7 mph 20.7 mph N/A   Partly Cloudy
1:15 PM - - N/A% 29.84 in 10.0 mi South 15.0 mph 24.2 mph N/A   Clear
1:35 PM - - N/A% 29.83 in 10.0 mi South 11.5 mph 20.7 mph N/A   Clear
1:55 PM - - N/A% 29.83 in 10.0 mi SSW 12.7 mph - N/A   Scattered Clouds
2:15 PM - - N/A% 29.83 in 10.0 mi SSW 10.4 mph 16.1 mph N/A   Partly Cloudy
2:35 PM - - N/A% 29.82 in 10.0 mi WNW 5.8 mph - N/A   Clear
3:15 PM - - N/A% 29.82 in 10.0 mi West 11.5 mph 17.3 mph N/A   Clear
3:35 PM - - N/A% 29.82 in 10.0 mi West 9.2 mph - N/A   Clear
3:55 PM - - N/A% 29.82 in 10.0 mi West 11.5 mph - N/A   Clear
4:15 PM - - N/A% 29.82 in 10.0 mi WNW 11.5 mph 16.1 mph N/A   Clear
4:35 PM - - N/A% 29.82 in 10.0 mi West 12.7 mph 17.3 mph N/A   Clear
4:55 PM - - N/A% 29.82 in 10.0 mi West 11.5 mph 20.7 mph N/A   Clear
5:15 PM - - N/A% 29.82 in 10.0 mi West 11.5 mph 17.3 mph N/A   Clear
5:35 PM - - N/A% 29.83 in 10.0 mi West 13.8 mph - N/A   Clear
5:55 PM - - N/A% 29.83 in 10.0 mi West 12.7 mph 19.6 mph N/A   Clear
6:15 PM - - N/A% 29.83 in 10.0 mi West 10.4 mph - N/A   Clear
6:35 PM - - N/A% 29.84 in 10.0 mi WNW 6.9 mph - N/A   Clear
6:55 PM - - N/A% 29.84 in 10.0 mi West 6.9 mph - N/A   Clear
7:15 PM - - N/A% 29.84 in 10.0 mi WSW 4.6 mph - N/A   Clear
7:35 PM - - N/A% 29.85 in 10.0 mi Calm Calm - N/A   Clear
7:55 PM - - N/A% 29.86 in 10.0 mi Calm Calm - N/A   Clear
8:15 PM - - N/A% 29.87 in 10.0 mi Calm Calm - N/A   Clear
8:35 PM - - N/A% 29.88 in 10.0 mi Calm Calm - N/A   Clear
8:55 PM 53.6 °F 37.4 °F 54% 29.90 in 10.0 mi Calm Calm - N/A   Clear
9:15 PM - - N/A% 29.90 in 10.0 mi Calm Calm - N/A   Clear
9:35 PM 50.0 °F 39.2 °F 66% 29.90 in 10.0 mi Calm Calm - N/A   Clear
9:55 PM - - N/A% 29.91 in 10.0 mi NNE 4.6 mph - N/A   Clear
10:15 PM - - N/A% 29.92 in 10.0 mi Calm Calm - N/A   Clear
10:35 PM - - N/A% 29.92 in 10.0 mi Calm Calm - N/A   Clear
10:55 PM - - N/A% 29.92 in 10.0 mi Calm Calm - N/A   Clear
11:15 PM - - N/A% 29.92 in 10.0 mi Calm Calm - N/A   Clear
11:35 PM - - N/A% 29.92 in 10.0 mi Calm Calm - N/A   Clear
11:55 PM 46.4 °F 37.4 °F 71% 29.93 in 10.0 mi Calm Calm - N/A   Clear